When you browse on this site, cookies collect data to enhance your experience and personalize the content and advertising you see.
Visit our Privacy Policy to learn more. By continuing to use the site, you agree to this use of cookies and data.
EN

Hourly Weather Ghazni

Today, 12 July, Sunday

Time Temperature Precipitation Wind Pressure Humidity
00:00 +24°C° 0 mm 3 mps 585 mmHg 28%
01:00 +24°C° 0 mm 3 mps 584 mmHg 30%
02:00 +22°C° 0 mm 3 mps 584 mmHg 32%
03:00 +21°C° 0 mm 3 mps 584 mmHg 33%
04:00 +21°C° 0 mm 3 mps 583 mmHg 35%
05:00 +20°C° 0 mm 4 mps 583 mmHg 37%
06:00 +21°C° 0 mm 4 mps 584 mmHg 35%
07:00 +21°C° 0 mm 3 mps 584 mmHg 34%
08:00 +22°C° 0 mm 3 mps 585 mmHg 32%
09:00 +24°C° 0 mm 3 mps 585 mmHg 31%
10:00 +26°C° 0 mm 2 mps 585 mmHg 30%
11:00 +26°C° 0 mm 2 mps 585 mmHg 30%
12:00 +28°C° 0 mm 3 mps 585 mmHg 27%
13:00 +29°C° 0 mm 4 mps 586 mmHg 23%
14:00 +30°C° 0 mm 5 mps 586 mmHg 20%
15:00 +32°C° 0 mm 6 mps 586 mmHg 18%
16:00 +32°C° 0 mm 7 mps 586 mmHg 16%
17:00 +32°C° 0 mm 8 mps 586 mmHg 14%
18:00 +30°C° 0 mm 6 mps 586 mmHg 15%
19:00 +29°C° 0 mm 5 mps 586 mmHg 16%
20:00 +28°C° 0 mm 4 mps 586 mmHg 17%
21:00 +27°C° 0 mm 4 mps 586 mmHg 26%
22:00 +25°C° 0 mm 4 mps 586 mmHg 34%
23:00 +23°C° 0 mm 4 mps 585 mmHg 43%

Tomorrow, 13 July, Monday

Time Temperature Precipitation Wind Pressure Humidity
00:00 +22°C° 0.4 mm 3 mps 585 mmHg 47%
01:00 +21°C° 0.4 mm 2 mps 585 mmHg 50%
02:00 +21°C° 0.4 mm 2 mps 584 mmHg 53%
03:00 +21°C° 0.1 mm 1 mps 584 mmHg 55%
04:00 +20°C° 0.1 mm 1 mps 584 mmHg 56%
05:00 +20°C° 0.1 mm 1 mps 584 mmHg 57%
06:00 +21°C° 0.1 mm 1 mps 584 mmHg 54%
07:00 +21°C° 0.1 mm 1 mps 584 mmHg 52%
08:00 +22°C° 0.1 mm 1 mps 585 mmHg 49%
09:00 +23°C° 0 mm 1 mps 585 mmHg 43%
10:00 +25°C° 0 mm 2 mps 586 mmHg 38%
11:00 +26°C° 0 mm 2 mps 586 mmHg 32%
12:00 +28°C° 0 mm 3 mps 586 mmHg 28%
13:00 +29°C° 0 mm 5 mps 587 mmHg 23%
14:00 +30°C° 0 mm 6 mps 587 mmHg 19%
15:00 +32°C° 0 mm 6 mps 587 mmHg 17%
16:00 +32°C° 0 mm 7 mps 587 mmHg 14%
17:00 +33°C° 0 mm 7 mps 587 mmHg 12%
18:00 +31°C° 0 mm 8 mps 587 mmHg 19%
19:00 +28°C° 0 mm 8 mps 586 mmHg 25%
20:00 +26°C° 0 mm 8 mps 586 mmHg 32%
21:00 +24°C° 0 mm 6 mps 586 mmHg 37%
22:00 +23°C° 0 mm 4 mps 586 mmHg 42%
23:00 +23°C° 0 mm 2 mps 585 mmHg 47%

Day after tomorrow, 14 July, Tuesday

Time Temperature Precipitation Wind Pressure Humidity
00:00 +21°C° 0 mm 2 mps 585 mmHg 51%
01:00 +21°C° 0 mm 2 mps 585 mmHg 55%
02:00 +20°C° 0 mm 2 mps 585 mmHg 60%
03:00 +21°C° 0 mm 1 mps 585 mmHg 60%
04:00 +20°C° 0 mm 1 mps 585 mmHg 61%
05:00 +20°C° 0 mm 1 mps 585 mmHg 62%
06:00 +21°C° 0 mm 1 mps 585 mmHg 57%
07:00 +20°C° 0 mm 0 mps 586 mmHg 53%
08:00 +21°C° 0 mm 0 mps 586 mmHg 48%
09:00 +24°C° 0 mm 1 mps 587 mmHg 41%
10:00 +26°C° 0 mm 2 mps 587 mmHg 33%
11:00 +28°C° 0 mm 2 mps 588 mmHg 26%
12:00 +29°C° 0 mm 3 mps 588 mmHg 22%
13:00 +30°C° 0 mm 4 mps 588 mmHg 19%
14:00 +33°C° 0 mm 5 mps 588 mmHg 15%
15:00 +33°C° 0 mm 5 mps 588 mmHg 15%
16:00 +33°C° 0 mm 5 mps 588 mmHg 14%
17:00 +33°C° 0 mm 5 mps 588 mmHg 14%
18:00 +32°C° 0 mm 5 mps 587 mmHg 15%
19:00 +32°C° 0 mm 5 mps 587 mmHg 16%
20:00 +30°C° 0 mm 5 mps 587 mmHg 18%
21:00 +29°C° 0 mm 5 mps 587 mmHg 21%
22:00 +28°C° 0 mm 4 mps 587 mmHg 24%
23:00 +27°C° 0 mm 4 mps 587 mmHg 26%

15 July, Wednesday

Time Temperature Precipitation Wind Pressure Humidity
00:00 +26°C° 0 mm 3 mps 587 mmHg 30%
01:00 +25°C° 0 mm 3 mps 586 mmHg 33%
02:00 +24°C° 0 mm 2 mps 586 mmHg 37%
03:00 +24°C° 0 mm 2 mps 586 mmHg 39%
04:00 +23°C° 0 mm 2 mps 586 mmHg 42%
05:00 +23°C° 0 mm 2 mps 586 mmHg 45%
06:00 +24°C° 0 mm 2 mps 586 mmHg 42%
07:00 +25°C° 0 mm 2 mps 587 mmHg 40%
08:00 +26°C° 0 mm 2 mps 587 mmHg 37%
09:00 +27°C° 0 mm 2 mps 588 mmHg 33%
10:00 +28°C° 0 mm 2 mps 588 mmHg 29%
11:00 +29°C° 0 mm 1 mps 588 mmHg 25%
12:00 +30°C° 0 mm 2 mps 588 mmHg 22%
13:00 +31°C° 0 mm 2 mps 588 mmHg 19%
14:00 +32°C° 0 mm 2 mps 588 mmHg 17%
15:00 +33°C° 0 mm 3 mps 588 mmHg 15%
16:00 +33°C° 0 mm 3 mps 588 mmHg 14%
17:00 +34°C° 0 mm 3 mps 588 mmHg 13%
18:00 +33°C° 0 mm 3 mps 588 mmHg 16%
19:00 +31°C° 0 mm 3 mps 588 mmHg 19%
20:00 +29°C° 0 mm 3 mps 587 mmHg 21%
21:00 +28°C° 0 mm 3 mps 587 mmHg 25%
22:00 +27°C° 0 mm 3 mps 587 mmHg 29%
23:00 +26°C° 0 mm 3 mps 587 mmHg 33%

16 July, Thursday

Time Temperature Precipitation Wind Pressure Humidity
00:00 +25°C° 0.4 mm 4 mps 587 mmHg 37%
01:00 +23°C° 0.4 mm 5 mps 586 mmHg 41%
02:00 +22°C° 0.4 mm 6 mps 585 mmHg 45%
03:00 +22°C° 0 mm 6 mps 585 mmHg 46%
04:00 +21°C° 0 mm 5 mps 585 mmHg 47%
05:00 +21°C° 0 mm 5 mps 585 mmHg 48%
06:00 +21°C° 0 mm 4 mps 586 mmHg 45%
07:00 +22°C° 0 mm 4 mps 586 mmHg 42%
08:00 +24°C° 0 mm 3 mps 586 mmHg 40%
09:00 +25°C° 0 mm 3 mps 586 mmHg 37%
10:00 +27°C° 0 mm 2 mps 587 mmHg 34%
11:00 +28°C° 0 mm 2 mps 587 mmHg 32%
12:00 +29°C° 0 mm 2 mps 587 mmHg 28%
13:00 +30°C° 0 mm 2 mps 587 mmHg 24%
14:00 +31°C° 0 mm 2 mps 587 mmHg 19%
15:00 +31°C° 0 mm 3 mps 588 mmHg 19%
16:00 +33°C° 0 mm 3 mps 588 mmHg 18%
17:00 +33°C° 0 mm 4 mps 588 mmHg 17%
18:00 +30°C° 0 mm 5 mps 588 mmHg 22%
19:00 +28°C° 0 mm 5 mps 587 mmHg 27%
20:00 +27°C° 0 mm 6 mps 586 mmHg 32%
21:00 +24°C° 0.1 mm 6 mps 586 mmHg 38%
22:00 +23°C° 0.1 mm 6 mps 586 mmHg 43%
23:00 +22°C° 0.1 mm 6 mps 586 mmHg 48%

17 July, Friday

Time Temperature Precipitation Wind Pressure Humidity
00:00 +22°C° 0 mm 5 mps 586 mmHg 50%
01:00 +21°C° 0 mm 4 mps 586 mmHg 51%
02:00 +21°C° 0 mm 3 mps 586 mmHg 52%
03:00 +21°C° 0 mm 3 mps 585 mmHg 52%
04:00 +21°C° 0 mm 2 mps 585 mmHg 52%
05:00 +20°C° 0 mm 2 mps 585 mmHg 52%
06:00 +21°C° 0 mm 2 mps 586 mmHg 48%
07:00 +23°C° 0 mm 1 mps 586 mmHg 43%
08:00 +24°C° 0 mm 1 mps 587 mmHg 39%
09:00 +26°C° 0 mm 1 mps 587 mmHg 35%
10:00 +27°C° 0 mm 1 mps 587 mmHg 31%
11:00 +28°C° 0 mm 1 mps 588 mmHg 28%
12:00 +29°C° 0 mm 2 mps 588 mmHg 24%
13:00 +30°C° 0 mm 2 mps 588 mmHg 21%
14:00 +32°C° 0 mm 2 mps 588 mmHg 17%
15:00 +33°C° 0 mm 3 mps 588 mmHg 16%
16:00 +33°C° 0 mm 3 mps 588 mmHg 15%
17:00 +34°C° 0 mm 3 mps 588 mmHg 14%
18:00 +33°C° 0 mm 4 mps 588 mmHg 17%
19:00 +32°C° 0 mm 5 mps 588 mmHg 20%
20:00 +30°C° 0 mm 6 mps 588 mmHg 23%
21:00 +28°C° 0 mm 6 mps 587 mmHg 30%
22:00 +26°C° 0 mm 5 mps 587 mmHg 36%
23:00 +25°C° 0 mm 5 mps 587 mmHg 43%
Show more